This is the latest recevied weather packets stored in our database for station/object TA3MHA. If no packets are shown the sender has not sent any weather packets the latest 10 day(s).
| Time | Temp. | Humidity | Pressure | Rain* | Wind** | Luminosity | Snow |
|---|---|---|---|---|---|---|---|
| 1776932101 | 8.89° C | 82% | - | 0 mm | - | 185 W/m² | - |
| 1776931800 | 8.89° C | 82% | - | 0 mm | - | 144 W/m² | - |
| 1776931501 | 8.89° C | 83% | - | 0 mm | - | 140 W/m² | - |
| 1776931200 | 8.89° C | 83% | - | 0 mm | - | 132 W/m² | - |
| 1776930901 | 9.44° C | 85% | - | 0 mm | - | 117 W/m² | - |
| 1776930601 | 9.44° C | 87% | - | 0 mm | - | 195 W/m² | - |
| 1776930301 | 8.89° C | 86% | - | 0 mm | - | 154 W/m² | - |
| 1776930000 | 8.89° C | 86% | - | 0 mm | - | 208 W/m² | - |
| 1776929700 | 8.89° C | 86% | - | 0 mm | - | 226 W/m² | - |
| 1776929401 | 8.89° C | 88% | - | 0 mm | - | 269 W/m² | - |
| 1776929101 | 8.89° C | 90% | - | 0 mm | - | 252 W/m² | - |
| 1776928801 | 8.33° C | 92% | - | 0 mm | - | 266 W/m² | - |
| 1776928501 | 8.33° C | 91% | - | 0 mm | - | 168 W/m² | - |
| 1776928201 | 8.33° C | 91% | - | 0 mm | - | 132 W/m² | - |
| 1776927902 | 8.33° C | 91% | - | 0 mm | - | 88 W/m² | - |
| 1776927601 | 8.33° C | 91% | - | 0 mm | - | 119 W/m² | - |
| 1776927301 | 8.33° C | 92% | - | 0 mm | - | 140 W/m² | - |
| 1776927000 | 8.33° C | 92% | - | 0 mm | - | 88 W/m² | - |
| 1776926701 | 8.33° C | 93% | - | 0 mm | - | 194 W/m² | - |
| 1776926401 | 8.33° C | 92% | - | 0 mm | - | 161 W/m² | - |
| 1776926101 | 8.33° C | 92% | - | 0 mm | - | 115 W/m² | - |
| 1776925801 | 7.78° C | 92% | - | 0 mm | - | 106 W/m² | - |
| 1776925500 | 7.78° C | 92% | - | 0 mm | - | 127 W/m² | - |
| 1776925200 | 7.78° C | 93% | - | 0 mm | - | 85 W/m² | - |
| 1776924901 | 8.33° C | 94% | - | 0 mm | - | 79 W/m² | - |
* Rain latest hour (hover to see other rain measurements)
** Current wind speed in m/s (hover to see current wind gust speed)